Powrót do katalogu

STARLINK-34248

AktywnyŁącznośćVLEO
NORAD 64928·PAYLOAD·🇺🇸 United States

Wystrzelony Jul 26, 2025 z Cape Canaveral Space Force Station

Loading…

Następne Przeloty (najbliższe 24 godziny)

TLE

ŚwieżeSource: CelesTrak SupGP

Epoka: Sep 15, 2026, 03:45 UTC

1 64928C 25157AA  26258.15673611  .00019798  00000+0  58488-3 0  2589
2 64928  53.1586 182.9412 0001408  72.5875 145.2493 15.34382942    13

Śledź STARLINK-34248 w czasie rzeczywistym z AllMySat

Download on the App Store